Precipitable_Water
0.25 0.16 0.15 0.14 0.14 0.17 0.17 0.17 0.19 0.19 0.20 0.22 0.23 0.22 0.23 0.21 0.21 0.20 0.21 0.22 0.22 0.20 0.19 0.19 0.16 0.15 0.15 0.15 0.15 0.16 0.17 0.17 0.19 0.21 0.23 0.26 0.70 0.65 0.62 0.59 0.57 0.59 0.66 0.83 0.95 0.98 0.98 1.06 1.16 1.24 1.25 1.17 1.09 1.04 0.98 0.99 1.01 1.04 1.10 1.18 1.25 1.42 1.48 1.53 1.50 1.48 1.49 1.47 1.48 1.48 1.44 1.42 1.49 1.50 1.48 1.52 1.51 1.50 1.53 1.59 1.57 1.61 1.56 1.53 1.55 1.52
0.24 0.17 0.16 0.18 0.17 0.18 0.20 0.21 0.19 0.19 0.20 0.21 0.20 0.22 0.23 0.22 0.19 0.20 0.19 0.23 0.24 0.20 0.20 0.21 0.18 0.16 0.15 0.16 0.16 0.17 0.17 0.17 0.18 0.18 0.22 0.24 0.34 0.61 0.57 0.53 0.51 0.52 0.64 0.72 0.81 0.94 0.91 0.96 1.12 1.18 1.19 1.16 1.01 0.94 0.94 0.94 0.95 1.02 1.11 1.17 1.28 1.40 1.45 1.53 1.53 1.49 1.50 1.49 1.46 1.44 1.44 1.41 1.44 1.45 1.44 1.46 1.48 1.49 1.54 1.57 1.56 1.56 1.59 1.47 1.46 1.48
0.22 0.18 0.18 0.18 0.21 0.20 0.19 0.20 0.21 0.16 0.17 0.20 0.21 0.22 0.22 0.22 0.21 0.20 0.19 0.22 0.21 0.22 0.21 0.22 0.19 0.17 0.16 0.16 0.17 0.16 0.16 0.17 0.18 0.20 0.23 0.25 0.25 0.31 0.58 0.59 0.52 0.53 0.58 0.58 0.69 0.77 0.89 0.98 1.10 1.11 1.10 1.13 1.07 0.96 0.93 0.96 0.97 1.00 1.06 1.15 1.24 1.33 1.45 1.51 1.53 1.50 1.47 1.52 1.56 1.52 1.48 1.46 1.47 1.53 1.52 1.50 1.51 1.53 1.55 1.55 1.56 1.56 1.50 1.44 1.47 1.49
0.22 0.20 0.16 0.17 0.19 0.20 0.18 0.17 0.19 0.21 0.19 0.19 0.21 0.20 0.20 0.22 0.18 0.15 0.17 0.18 0.22 0.20 0.22 0.23 0.21 0.19 0.19 0.20 0.20 0.21 0.20 0.19 0.18 0.18 0.20 0.25 0.26 0.25 0.45 0.50 0.59 0.58 0.59 0.61 0.61 0.69 0.85 0.97 1.06 1.06 1.07 1.09 1.07 1.00 0.98 0.99 0.99 1.03 1.08 1.14 1.23 1.36 1.43 1.41 1.47 1.49 1.52 1.59 1.61 1.59 1.54 1.55 1.50 1.45 1.47 1.51 1.49 1.48 1.50 1.49 1.51 1.54 1.54 1.49 1.49 1.39
0.23 0.24 0.28 0.22 0.18 0.19 0.19 0.19 0.20 0.24 0.22 0.23 0.22 0.21 0.19 0.18 0.16 0.15 0.19 0.21 0.23 0.24 0.27 0.25 0.22 0.19 0.20 0.20 0.19 0.19 0.20 0.19 0.19 0.18 0.18 0.19 0.23 0.26 0.26 0.55 0.56 0.63 0.61 0.67 0.73 0.75 0.82 0.92 0.97 1.05 1.16 1.22 1.16 1.10 1.02 0.97 1.00 1.04 1.07 1.15 1.22 1.27 1.32 1.32 1.41 1.47 1.54 1.56 1.53 1.53 1.54 1.54 1.49 1.49 1.47 1.37 1.31 1.40 1.43 1.45 1.40 1.41 1.46 1.39 1.34 1.31
0.24 0.30 0.29 0.22 0.21 0.18 0.19 0.20 0.22 0.22 0.19 0.18 0.19 0.18 0.16 0.18 0.18 0.19 0.19 0.21 0.20 0.20 0.23 0.23 0.17 0.16 0.18 0.18 0.17 0.17 0.18 0.18 0.20 0.18 0.16 0.17 0.19 0.24 0.24 0.27 0.61 0.61 0.63 0.56 0.64 0.66 0.74 0.91 1.07 1.16 1.13 1.17 1.26 1.23 1.10 1.03 1.02 1.03 1.08 1.12 1.18 1.25 1.28 1.30 1.34 1.42 1.48 1.49 1.44 1.42 1.39 1.34 1.32 1.31 1.31 1.22 1.23 1.28 1.31 1.34 1.39 1.39 1.42 1.38 1.34 1.35
0.23 0.28 0.26 0.26 0.23 0.20 0.23 0.22 0.24 0.22 0.17 0.15 0.16 0.19 0.16 0.14 0.17 0.20 0.21 0.22 0.19 0.16 0.21 0.23 0.15 0.14 0.18 0.18 0.20 0.20 0.19 0.19 0.20 0.19 0.19 0.19 0.18 0.23 0.25 0.25 0.31 0.60 0.60 0.58 0.62 0.67 0.83 1.00 0.99 1.06 1.08 0.90 0.94 1.10 1.14 1.05 1.04 1.06 1.09 1.10 1.14 1.20 1.25 1.31 1.31 1.40 1.45 1.46 1.45 1.42 1.39 1.34 1.33 1.30 1.30 1.33 1.34 1.33 1.36 1.35 1.34 1.36 1.39 1.36 1.31 1.30
0.28 0.26 0.25 0.26 0.26 0.24 0.23 0.20 0.20 0.20 0.18 0.14 0.18 0.21 0.22 0.21 0.19 0.17 0.17 0.20 0.20 0.19 0.20 0.20 0.18 0.15 0.15 0.18 0.20 0.22 0.21 0.19 0.20 0.21 0.21 0.22 0.22 0.22 0.26 0.27 0.27 0.26 0.55 0.64 0.69 0.76 0.87 1.03 1.04 1.05 1.02 0.88 0.82 0.95 1.10 1.11 1.09 1.05 1.09 1.10 1.10 1.16 1.24 1.33 1.35 1.40 1.49 1.48 1.43 1.38 1.37 1.38 1.38 1.33 1.26 1.30 1.33 1.40 1.36 1.29 1.32 1.34 1.31 1.34 1.32 1.27
0.26 0.24 0.26 0.27 0.26 0.25 0.22 0.22 0.20 0.19 0.18 0.18 0.18 0.19 0.21 0.21 0.21 0.17 0.17 0.19 0.20 0.18 0.15 0.16 0.19 0.16 0.14 0.16 0.20 0.19 0.18 0.20 0.20 0.28 0.44 0.45 0.38 0.43 0.45 0.45 0.40 0.47 0.61 0.74 0.74 0.83 0.91 0.93 0.96 0.99 0.90 0.83 0.84 0.99 1.07 1.06 1.02 1.03 1.07 1.10 1.12 1.15 1.24 1.36 1.46 1.45 1.48 1.49 1.47 1.39 1.38 1.38 1.38 1.34 1.29 1.29 1.38 1.34 1.32 1.27 1.33 1.32 1.28 1.31 1.30 1.26
0.29 0.26 0.26 0.27 0.29 0.23 0.22 0.22 0.20 0.20 0.18 0.20 0.22 0.23 0.23 0.21 0.23 0.24 0.22 0.18 0.17 0.16 0.13 0.15 0.18 0.14 0.13 0.16 0.18 0.22 0.23 0.32 0.29 0.38 0.43 0.42 0.42 0.48 0.46 0.46 0.43 0.46 0.54 0.73 0.89 1.03 1.08 0.94 0.96 1.02 0.97 0.85 0.89 1.00 1.08 1.08 1.06 1.05 1.09 1.09 1.11 1.15 1.27 1.35 1.41 1.50 1.47 1.49 1.46 1.41 1.39 1.36 1.31 1.31 1.30 1.29 1.28 1.29 1.30 1.27 1.28 1.27 1.23 1.25 1.24 1.23
0.31 0.34 0.33 0.28 0.28 0.28 0.24 0.22 0.22 0.21 0.21 0.24 0.23 0.20 0.20 0.20 0.22 0.22 0.18 0.18 0.17 0.13 0.13 0.14 0.16 0.16 0.13 0.16 0.18 0.19 0.34 0.30 0.41 0.45 0.44 0.45 0.44 0.46 0.43 0.42 0.45 0.44 0.54 0.79 0.90 0.94 1.10 1.18 1.06 0.99 0.95 0.91 0.95 0.97 1.02 1.05 1.05 1.08 1.10 1.11 1.11 1.20 1.27 1.34 1.30 1.32 1.32 1.40 1.45 1.43 1.40 1.36 1.31 1.27 1.26 1.24 1.23 1.23 1.22 1.19 1.21 1.23 1.22 1.23 1.21 1.19
0.28 0.31 0.30 0.27 0.28 0.30 0.27 0.23 0.23 0.24 0.25 0.23 0.21 0.19 0.21 0.21 0.21 0.18 0.16 0.17 0.12 0.09 0.11 0.14 0.16 0.18 0.14 0.16 0.24 0.38 0.42 0.44 0.43 0.40 0.43 0.41 0.47 0.48 0.48 0.50 0.54 0.60 0.69 0.87 0.86 0.88 0.94 1.01 1.06 1.08 1.00 0.96 0.98 1.03 1.02 1.04 1.08 1.10 1.15 1.16 1.18 1.23 1.27 1.30 1.31 1.27 1.26 1.38 1.42 1.41 1.41 1.35 1.34 1.26 1.18 1.18 1.20 1.21 1.18 1.18 1.22 1.22 1.20 1.19 1.17 1.15
0.23 0.23 0.27 0.30 0.33 0.29 0.26 0.21 0.22 0.23 0.23 0.21 0.20 0.19 0.15 0.13 0.14 0.13 0.14 0.12 0.11 0.10 0.14 0.16 0.17 0.16 0.16 0.20 0.35 0.44 0.46 0.48 0.49 0.48 0.48 0.50 0.52 0.57 0.57 0.58 0.61 0.73 0.77 0.87 0.86 0.94 0.96 1.02 1.00 1.03 1.04 1.02 1.01 1.01 1.07 1.11 1.14 1.18 1.22 1.25 1.23 1.21 1.26 1.30 1.31 1.27 1.31 1.32 1.39 1.41 1.40 1.39 1.36 1.30 1.28 1.22 1.22 1.24 1.19 1.19 1.17 1.17 1.15 1.14 1.10 1.10
0.22 0.25 0.27 0.28 0.29 0.27 0.25 0.20 0.18 0.20 0.22 0.21 0.18 0.18 0.16 0.12 0.13 0.11 0.13 0.15 0.15 0.17 0.21 0.19 0.23 0.19 0.24 0.41 0.47 0.45 0.52 0.52 0.53 0.53 0.55 0.54 0.57 0.57 0.62 0.64 0.61 0.66 0.83 0.87 0.90 0.89 0.93 0.94 1.02 1.06 1.11 1.13 1.11 1.10 1.15 1.21 1.22 1.23 1.24 1.27 1.20 1.16 1.14 1.15 1.18 1.20 1.27 1.32 1.38 1.43 1.42 1.42 1.38 1.36 1.33 1.26 1.25 1.25 1.21 1.20 1.20 1.17 1.14 1.10 1.07 1.03
0.20 0.20 0.21 0.23 0.24 0.29 0.23 0.21 0.22 0.21 0.22 0.24 0.24 0.20 0.18 0.16 0.13 0.11 0.13 0.13 0.16 0.21 0.27 0.30 0.23 0.20 0.21 0.42 0.48 0.49 0.50 0.57 0.59 0.60 0.61 0.65 0.66 0.68 0.68 0.68 0.65 0.66 0.79 0.89 0.85 0.79 0.83 0.89 1.01 1.10 1.13 1.17 1.20 1.21 1.30 1.26 1.24 1.24 1.23 1.26 1.19 1.14 1.14 1.12 1.12 1.17 1.17 1.26 1.40 1.43 1.41 1.43 1.40 1.34 1.33 1.23 1.20 1.26 1.25 1.24 1.20 1.15 1.13 1.07 1.04 1.03
0.24 0.25 0.30 0.31 0.29 0.31 0.26 0.23 0.25 0.24 0.23 0.26 0.26 0.24 0.19 0.16 0.18 0.13 0.16 0.19 0.20 0.21 0.21 0.23 0.23 0.31 0.34 0.49 0.58 0.61 0.60 0.56 0.57 0.54 0.63 0.61 0.70 0.71 0.68 0.70 0.71 0.74 0.82 0.92 0.98 0.98 0.96 0.97 1.05 1.04 1.07 1.11 1.14 1.16 1.24 1.27 1.29 1.23 1.21 1.22 1.20 1.15 1.12 1.09 1.10 1.11 1.17 1.23 1.31 1.39 1.40 1.42 1.38 1.32 1.32 1.24 1.22 1.22 1.29 1.27 1.19 1.13 1.09 1.09 1.12 1.11
0.25 0.25 0.31 0.32 0.32 0.30 0.31 0.29 0.24 0.25 0.17 0.22 0.23 0.19 0.18 0.20 0.18 0.17 0.17 0.19 0.20 0.19 0.17 0.24 0.24 0.29 0.45 0.51 0.57 0.58 0.53 0.57 0.61 0.58 0.62 0.68 0.64 0.70 0.72 0.74 0.81 0.87 0.91 0.96 0.98 1.00 1.07 1.06 1.07 1.14 1.05 1.08 1.14 1.19 1.26 1.22 1.24 1.22 1.18 1.15 1.15 1.17 1.17 1.14 1.12 1.10 1.14 1.22 1.26 1.30 1.36 1.40 1.35 1.29 1.26 1.22 1.18 1.18 1.31 1.27 1.17 1.10 1.11 1.15 1.15 1.13
0.23 0.26 0.32 0.30 0.29 0.34 0.33 0.32 0.29 0.26 0.24 0.24 0.21 0.22 0.24 0.22 0.20 0.18 0.15 0.19 0.17 0.15 0.17 0.22 0.23 0.31 0.33 0.32 0.54 0.53 0.52 0.57 0.59 0.59 0.58 0.66 0.68 0.64 0.71 0.85 0.85 0.92 0.97 0.97 1.00 0.99 0.97 1.00 1.05 1.09 1.12 1.08 1.08 1.18 1.22 1.28 1.26 1.20 1.22 1.20 1.17 1.19 1.15 1.13 1.10 1.08 1.12 1.18 1.18 1.13 1.26 1.33 1.30 1.24 1.24 1.17 1.16 1.24 1.30 1.23 1.15 1.12 1.14 1.15 1.14 1.12
0.26 0.21 0.27 0.29 0.30 0.35 0.36 0.32 0.29 0.29 0.26 0.22 0.23 0.35 0.24 0.20 0.16 0.18 0.17 0.14 0.16 0.17 0.19 0.21 0.24 0.30 0.36 0.35 0.45 0.48 0.51 0.54 0.56 0.60 0.63 0.64 0.69 0.75 0.85 0.88 0.95 0.94 0.96 0.96 0.99 1.02 1.00 0.92 0.92 0.95 1.01 1.09 1.14 1.17 1.19 1.12 1.08 1.13 1.16 1.19 1.17 1.16 1.16 1.14 1.15 1.15 1.18 1.24 1.24 1.13 1.11 1.19 1.25 1.23 1.27 1.24 1.24 1.34 1.26 1.16 1.14 1.14 1.14 1.16 1.14 1.10
0.31 0.23 0.25 0.30 0.27 0.33 0.33 0.29 0.23 0.26 0.28 0.24 0.25 0.25 0.28 0.26 0.24 0.20 0.18 0.18 0.20 0.18 0.19 0.19 0.21 0.26 0.44 0.41 0.51 0.50 0.53 0.54 0.61 0.67 0.68 0.68 0.74 0.86 0.85 0.89 0.87 0.96 0.92 0.94 0.96 1.00 1.04 1.10 1.14 1.10 1.14 1.22 1.19 1.23 1.14 1.10 1.09 1.09 1.14 1.15 1.17 1.18 1.21 1.21 1.20 1.18 1.16 1.23 1.26 1.21 1.15 1.15 1.19 1.25 1.29 1.27 1.32 1.28 1.19 1.16 1.15 1.14 1.11 1.11 1.10 1.09
0.24 0.29 0.23 0.30 0.32 0.30 0.26 0.28 0.24 0.24 0.23 0.23 0.19 0.19 0.22 0.23 0.27 0.26 0.30 0.25 0.21 0.18 0.17 0.19 0.21 0.31 0.44 0.57 0.57 0.62 0.62 0.64 0.68 0.69 0.72 0.73 0.83 0.83 0.86 0.87 0.87 0.89 0.88 0.90 0.92 0.94 0.99 1.02 1.09 1.15 1.20 1.23 1.25 1.17 1.20 1.21 1.20 1.17 1.17 1.17 1.20 1.20 1.22 1.22 1.23 1.21 1.21 1.21 1.24 1.22 1.14 1.09 1.14 1.25 1.31 1.33 1.31 1.22 1.19 1.18 1.18 1.14 1.11 1.08 1.05 1.03
0.23 0.29 0.25 0.29 0.29 0.27 0.26 0.31 0.29 0.26 0.25 0.24 0.24 0.21 0.20 0.20 0.20 0.18 0.18 0.26 0.25 0.22 0.23 0.23 0.22 0.33 0.49 0.63 0.64 0.62 0.68 0.66 0.69 0.67 0.69 0.80 0.80 0.84 0.82 0.84 0.83 0.83 0.86 0.86 0.88 0.91 0.92 0.96 1.04 1.10 1.13 1.14 1.14 1.16 1.16 1.21 1.26 1.26 1.23 1.26 1.28 1.27 1.28 1.25 1.22 1.20 1.23 1.26 1.26 1.23 1.20 1.13 1.14 1.20 1.29 1.31 1.26 1.23 1.20 1.18 1.16 1.13 1.08 1.02 1.03 1.00
0.36 0.36 0.32 0.27 0.28 0.30 0.29 0.34 0.35 0.35 0.32 0.26 0.25 0.23 0.22 0.21 0.21 0.21 0.18 0.23 0.24 0.26 0.28 0.28 0.23 0.34 0.54 0.58 0.66 0.70 0.73 0.73 0.72 0.72 0.74 0.79 0.82 0.79 0.82 0.83 0.83 0.84 0.84 0.83 0.85 0.87 0.89 0.94 0.98 1.02 1.08 1.13 1.12 1.12 1.16 1.19 1.18 1.21 1.25 1.34 1.29 1.27 1.27 1.25 1.22 1.22 1.26 1.29 1.32 1.29 1.25 1.18 1.12 1.14 1.19 1.26 1.23 1.21 1.19 1.17 1.16 1.14 1.08 1.05 1.01 1.03
0.40 0.30 0.27 0.28 0.33 0.35 0.36 0.38 0.39 0.35 0.34 0.30 0.28 0.30 0.29 0.24 0.21 0.19 0.21 0.33 0.27 0.28 0.26 0.29 0.24 0.35 0.54 0.65 0.66 0.69 0.79 0.80 0.82 0.76 0.72 0.76 0.79 0.80 0.79 0.83 0.82 0.82 0.82 0.81 0.82 0.86 0.89 0.90 0.93 0.95 0.98 1.04 1.11 1.13 1.12 1.15 1.17 1.22 1.28 1.28 1.26 1.25 1.28 1.27 1.21 1.22 1.24 1.25 1.29 1.33 1.25 1.19 1.10 1.13 1.19 1.14 1.15 1.16 1.17 1.17 1.16 1.13 1.11 1.10 1.04 1.02
0.33 0.31 0.27 0.26 0.26 0.29 0.32 0.37 0.35 0.39 0.39 0.39 0.41 0.44 0.45 0.46 0.41 0.39 0.35 0.34 0.25 0.27 0.30 0.24 0.22 0.31 0.56 0.68 0.65 0.69 0.74 0.71 0.72 0.74 0.74 0.69 0.72 0.75 0.77 0.79 0.80 0.79 0.78 0.79 0.78 0.78 0.83 0.83 0.83 0.85 0.91 0.97 1.02 1.11 1.14 1.10 1.11 1.17 1.22 1.22 1.18 1.19 1.21 1.23 1.20 1.18 1.22 1.24 1.25 1.29 1.22 1.20 1.15 1.15 1.12 1.12 1.15 1.15 1.16 1.16 1.16 1.13 1.11 1.12 1.10 1.04
0.41 0.43 0.34 0.24 0.23 0.22 0.22 0.23 0.27 0.29 0.33 0.36 0.39 0.41 0.45 0.45 0.44 0.36 0.28 0.30 0.24 0.28 0.31 0.26 0.26 0.42 0.57 0.60 0.60 0.64 0.66 0.65 0.66 0.69 0.70 0.71 0.70 0.71 0.73 0.74 0.76 0.76 0.76 0.75 0.77 0.78 0.77 0.78 0.80 0.83 0.85 0.87 0.93 0.99 1.07 1.12 1.15 1.15 1.14 1.18 1.20 1.19 1.20 1.24 1.26 1.24 1.24 1.23 1.25 1.26 1.23 1.20 1.17 1.12 1.09 1.09 1.12 1.16 1.18 1.16 1.15 1.12 1.10 1.12 1.12 1.10
0.47 0.47 0.42 0.37 0.33 0.32 0.35 0.40 0.43 0.46 0.43 0.34 0.35 0.39 0.40 0.46 0.48 0.46 0.42 0.32 0.27 0.36 0.32 0.36 0.36 0.39 0.43 0.51 0.58 0.63 0.63 0.60 0.59 0.63 0.63 0.65 0.68 0.70 0.70 0.71 0.71 0.72 0.73 0.73 0.73 0.76 0.78 0.78 0.78 0.80 0.84 0.86 0.89 0.93 0.96 1.02 1.07 1.12 1.14 1.16 1.18 1.20 1.22 1.23 1.26 1.30 1.31 1.27 1.28 1.21 1.23 1.23 1.19 1.14 1.12 1.11 1.12 1.15 1.18 1.15 1.14 1.11 1.10 1.13 1.14 1.10
0.46 0.42 0.47 0.41 0.40 0.43 0.46 0.45 0.51 0.49 0.40 0.41 0.40 0.40 0.44 0.42 0.44 0.41 0.36 0.33 0.47 0.40 0.32 0.45 0.45 0.41 0.46 0.55 0.58 0.59 0.61 0.62 0.60 0.60 0.62 0.64 0.65 0.66 0.66 0.68 0.69 0.70 0.72 0.72 0.72 0.73 0.73 0.75 0.77 0.80 0.82 0.85 0.87 0.91 0.93 0.96 0.99 1.04 1.09 1.12 1.16 1.18 1.20 1.23 1.25 1.28 1.32 1.32 1.31 1.24 1.21 1.22 1.24 1.16 1.13 1.13 1.11 1.10 1.12 1.15 1.15 1.13 1.13 1.15 1.11 1.05
0.45 0.36 0.42 0.41 0.42 0.43 0.45 0.42 0.43 0.46 0.43 0.41 0.42 0.44 0.44 0.45 0.43 0.39 0.40 0.45 0.43 0.34 0.32 0.42 0.49 0.48 0.52 0.55 0.57 0.57 0.59 0.59 0.58 0.59 0.61 0.65 0.67 0.67 0.67 0.66 0.66 0.67 0.68 0.68 0.70 0.71 0.72 0.72 0.74 0.77 0.80 0.85 0.89 0.90 0.91 0.91 0.95 1.00 1.04 1.07 1.11 1.16 1.22 1.26 1.30 1.37 1.36 1.35 1.31 1.26 1.22 1.24 1.24 1.19 1.15 1.12 1.10 1.12 1.15 1.17 1.17 1.18 1.17 1.14 1.07 1.03
0.41 0.34 0.45 0.46 0.40 0.39 0.40 0.41 0.43 0.42 0.46 0.45 0.45 0.48 0.49 0.47 0.47 0.46 0.48 0.51 0.50 0.45 0.47 0.46 0.47 0.47 0.52 0.54 0.56 0.57 0.61 0.61 0.60 0.62 0.63 0.62 0.63 0.66 0.66 0.66 0.65 0.66 0.67 0.68 0.69 0.71 0.72 0.73 0.74 0.76 0.79 0.83 0.86 0.90 0.92 0.93 0.92 0.94 0.98 1.03 1.11 1.16 1.22 1.27 1.26 1.33 1.36 1.32 1.30 1.28 1.25 1.23 1.21 1.18 1.12 1.09 1.12 1.14 1.17 1.17 1.21 1.22 1.17 1.09 1.03 0.99
0.33 0.34 0.39 0.39 0.35 0.36 0.40 0.42 0.42 0.43 0.51 0.47 0.48 0.49 0.50 0.51 0.52 0.52 0.50 0.50 0.50 0.48 0.50 0.49 0.47 0.45 0.55 0.59 0.58 0.60 0.61 0.61 0.59 0.58 0.58 0.59 0.62 0.63 0.63 0.65 0.66 0.67 0.68 0.70 0.71 0.71 0.72 0.74 0.76 0.78 0.81 0.83 0.85 0.89 0.92 0.95 0.96 0.96 0.98 1.02 1.10 1.17 1.25 1.28 1.31 1.37 1.35 1.32 1.34 1.30 1.24 1.26 1.25 1.21 1.11 1.10 1.12 1.12 1.17 1.20 1.23 1.20 1.11 1.05 1.01 0.99
0.36 0.32 0.34 0.36 0.29 0.29 0.37 0.38 0.42 0.44 0.46 0.46 0.45 0.45 0.45 0.44 0.43 0.45 0.45 0.51 0.47 0.42 0.47 0.45 0.39 0.40 0.52 0.58 0.59 0.59 0.57 0.55 0.54 0.57 0.60 0.61 0.63 0.63 0.62 0.65 0.67 0.69 0.70 0.71 0.72 0.72 0.72 0.73 0.75 0.78 0.80 0.84 0.88 0.90 0.92 0.95 0.97 0.98 1.00 1.03 1.06 1.12 1.23 1.27 1.29 1.33 1.31 1.31 1.35 1.33 1.26 1.23 1.23 1.20 1.16 1.15 1.08 1.09 1.15 1.15 1.20 1.18 1.10 1.06 1.02 1.03
0.35 0.29 0.25 0.27 0.24 0.26 0.37 0.36 0.38 0.38 0.41 0.39 0.38 0.44 0.46 0.47 0.48 0.48 0.50 0.52 0.52 0.52 0.47 0.40 0.40 0.49 0.53 0.58 0.54 0.55 0.54 0.56 0.55 0.57 0.59 0.62 0.63 0.64 0.64 0.65 0.67 0.69 0.69 0.70 0.71 0.71 0.72 0.74 0.76 0.79 0.82 0.86 0.89 0.91 0.95 0.99 1.01 1.01 1.01 1.05 1.10 1.12 1.18 1.23 1.25 1.26 1.27 1.27 1.26 1.25 1.26 1.26 1.24 1.18 1.14 1.09 1.07 1.10 1.12 1.16 1.25 1.21 1.13 1.08 1.10 1.06
0.33 0.31 0.27 0.32 0.22 0.26 0.34 0.35 0.38 0.32 0.24 0.28 0.47 0.53 0.51 0.46 0.46 0.41 0.42 0.46 0.52 0.53 0.50 0.53 0.53 0.56 0.56 0.55 0.52 0.52 0.53 0.54 0.57 0.60 0.65 0.64 0.63 0.64 0.66 0.67 0.67 0.68 0.69 0.70 0.71 0.72 0.74 0.76 0.78 0.80 0.84 0.87 0.90 0.93 0.96 0.99 1.00 1.03 1.06 1.08 1.10 1.13 1.13 1.16 1.17 1.22 1.24 1.24 1.23 1.23 1.22 1.22 1.21 1.15 1.09 1.06 1.09 1.14 1.20 1.22 1.21 1.19 1.16 1.13 1.11 1.07
0.30 0.29 0.25 0.28 0.22 0.22 0.30 0.32 0.25 0.20 0.25 0.42 0.51 0.54 0.56 0.54 0.51 0.46 0.48 0.49 0.52 0.54 0.54 0.53 0.54 0.54 0.55 0.56 0.56 0.56 0.57 0.59 0.61 0.61 0.63 0.66 0.67 0.66 0.66 0.67 0.67 0.69 0.69 0.69 0.70 0.71 0.73 0.75 0.78 0.80 0.82 0.85 0.89 0.93 0.93 0.94 0.99 1.02 1.04 1.06 1.08 1.10 1.10 1.10 1.11 1.15 1.19 1.21 1.21 1.23 1.19 1.18 1.16 1.11 1.10 1.12 1.14 1.19 1.20 1.19 1.18 1.14 1.13 1.12 1.08 1.05
0.30 0.27 0.26 0.24 0.22 0.26 0.23 0.27 0.18 0.23 0.39 0.47 0.50 0.52 0.57 0.56 0.54 0.50 0.45 0.49 0.52 0.53 0.54 0.52 0.54 0.56 0.57 0.57 0.58 0.59 0.58 0.59 0.60 0.62 0.64 0.66 0.68 0.67 0.66 0.66 0.67 0.69 0.70 0.71 0.71 0.73 0.73 0.74 0.76 0.78 0.80 0.86 0.88 0.90 0.92 0.93 0.97 0.98 0.97 1.02 1.04 1.06 1.08 1.08 1.08 1.07 1.13 1.15 1.17 1.17 1.16 1.16 1.13 1.11 1.11 1.13 1.13 1.14 1.18 1.16 1.13 1.08 1.08 1.08 1.07 1.08
0.35 0.32 0.29 0.23 0.25 0.18 0.26 0.28 0.29 0.40 0.39 0.40 0.42 0.46 0.50 0.45 0.47 0.44 0.35 0.42 0.51 0.54 0.55 0.53 0.55 0.56 0.57 0.58 0.59 0.60 0.60 0.58 0.54 0.56 0.64 0.66 0.67 0.69 0.68 0.68 0.69 0.69 0.70 0.72 0.74 0.74 0.77 0.77 0.77 0.80 0.81 0.83 0.85 0.87 0.89 0.92 0.94 0.94 0.95 0.95 0.99 1.00 1.01 1.03 1.04 1.06 1.09 1.11 1.12 1.14 1.14 1.12 1.11 1.10 1.11 1.13 1.13 1.11 1.10 1.10 1.11 1.10 1.10 1.06 1.06 1.04
0.38 0.30 0.36 0.25 0.25 0.25 0.24 0.25 0.26 0.27 0.24 0.33 0.45 0.53 0.58 0.57 0.56 0.55 0.46 0.40 0.51 0.54 0.57 0.56 0.54 0.56 0.57 0.59 0.59 0.60 0.61 0.54 0.47 0.50 0.60 0.65 0.68 0.68 0.69 0.69 0.70 0.70 0.71 0.73 0.76 0.76 0.76 0.78 0.79 0.79 0.79 0.80 0.82 0.85 0.87 0.90 0.91 0.92 0.92 0.93 0.94 0.96 0.97 0.99 1.00 1.03 1.06 1.07 1.09 1.11 1.12 1.13 1.12 1.11 1.10 1.10 1.09 1.07 1.10 1.11 1.11 1.09 1.09 1.03 1.00 1.00
0.34 0.32 0.37 0.28 0.26 0.26 0.25 0.24 0.25 0.24 0.29 0.42 0.46 0.52 0.56 0.59 0.57 0.56 0.43 0.33 0.48 0.53 0.55 0.55 0.55 0.57 0.58 0.58 0.60 0.61 0.56 0.47 0.46 0.51 0.60 0.65 0.67 0.68 0.66 0.66 0.67 0.67 0.68 0.68 0.70 0.71 0.73 0.75 0.76 0.77 0.78 0.79 0.79 0.82 0.84 0.86 0.87 0.88 0.88 0.89 0.90 0.94 0.94 0.94 0.97 1.01 1.02 1.03 1.06 1.08 1.10 1.11 1.10 1.10 1.10 1.09 1.09 1.09 1.07 1.05 1.05 1.07 1.07 1.06 1.06 1.06
0.36 0.30 0.28 0.22 0.21 0.25 0.28 0.25 0.24 0.32 0.32 0.43 0.50 0.53 0.56 0.60 0.59 0.50 0.29 0.29 0.48 0.54 0.56 0.56 0.55 0.56 0.59 0.61 0.62 0.59 0.54 0.47 0.49 0.55 0.64 0.66 0.66 0.67 0.67 0.66 0.66 0.66 0.67 0.68 0.69 0.70 0.70 0.71 0.71 0.70 0.72 0.74 0.77 0.80 0.81 0.81 0.82 0.82 0.83 0.84 0.87 0.87 0.88 0.90 0.93 0.96 0.97 1.01 1.03 1.03 1.05 1.06 1.07 1.07 1.06 1.05 1.05 1.06 1.06 1.09 1.08 1.08 1.07 1.08 1.08 1.07
0.32 0.32 0.27 0.23 0.23 0.26 0.26 0.27 0.31 0.35 0.46 0.51 0.52 0.55 0.57 0.61 0.54 0.33 0.25 0.38 0.54 0.55 0.57 0.57 0.56 0.57 0.59 0.58 0.60 0.54 0.59 0.61 0.62 0.66 0.68 0.68 0.68 0.69 0.72 0.72 0.70 0.68 0.67 0.67 0.68 0.71 0.71 0.73 0.71 0.69 0.69 0.72 0.75 0.77 0.78 0.78 0.76 0.76 0.78 0.80 0.82 0.82 0.85 0.87 0.89 0.92 0.93 0.94 0.97 0.98 1.00 1.02 1.02 1.02 1.04 1.05 1.04 1.05 1.06 1.07 1.07 1.07 1.07 1.06 1.07 1.06
0.29 0.28 0.28 0.24 0.23 0.23 0.28 0.26 0.29 0.35 0.46 0.54 0.56 0.56 0.57 0.48 0.31 0.28 0.46 0.57 0.56 0.55 0.58 0.58 0.56 0.58 0.58 0.58 0.58 0.59 0.61 0.65 0.67 0.68 0.68 0.68 0.68 0.70 0.71 0.71 0.71 0.71 0.70 0.69 0.67 0.67 0.67 0.69 0.71 0.71 0.71 0.71 0.72 0.73 0.75 0.76 0.74 0.74 0.75 0.76 0.77 0.80 0.83 0.84 0.84 0.84 0.85 0.86 0.87 0.89 0.91 0.92 0.94 0.94 0.95 0.97 1.00 0.99 0.99 1.01 1.02 1.01 1.00 1.00 1.00 0.99
0.29 0.24 0.23 0.22 0.28 0.30 0.29 0.28 0.29 0.24 0.43 0.56 0.53 0.52 0.53 0.38 0.40 0.51 0.54 0.55 0.57 0.56 0.56 0.56 0.57 0.57 0.58 0.57 0.60 0.61 0.62 0.63 0.64 0.65 0.66 0.67 0.67 0.67 0.68 0.68 0.68 0.68 0.68 0.68 0.67 0.67 0.66 0.65 0.67 0.69 0.71 0.73 0.73 0.73 0.72 0.72 0.72 0.73 0.75 0.75 0.78 0.81 0.80 0.79 0.81 0.82 0.82 0.82 0.83 0.83 0.84 0.84 0.84 0.86 0.87 0.87 0.86 0.85 0.84 0.86 0.86 0.85 0.84 0.83 0.80 0.79
0.38 0.25 0.25 0.26 0.36 0.25 0.24 0.25 0.28 0.40 0.49 0.56 0.52 0.41 0.50 0.51 0.56 0.57 0.55 0.51 0.55 0.56 0.54 0.54 0.55 0.57 0.58 0.57 0.57 0.59 0.61 0.62 0.63 0.64 0.64 0.65 0.65 0.66 0.66 0.67 0.68 0.68 0.68 0.69 0.69 0.69 0.67 0.65 0.65 0.66 0.67 0.70 0.71 0.73 0.74 0.74 0.73 0.73 0.74 0.74 0.78 0.80 0.82 0.81 0.81 0.82 0.82 0.81 0.82 0.83 0.84 0.85 0.86 0.85 0.83 0.83 0.83 0.82 0.80 0.78 0.78 0.78 0.77 0.77 0.77 0.76
0.40 0.32 0.34 0.27 0.39 0.35 0.31 0.37 0.47 0.53 0.55 0.58 0.56 0.54 0.56 0.59 0.59 0.58 0.56 0.54 0.53 0.54 0.57 0.54 0.54 0.56 0.57 0.57 0.57 0.57 0.57 0.60 0.61 0.63 0.62 0.63 0.64 0.64 0.64 0.64 0.65 0.65 0.66 0.66 0.67 0.68 0.68 0.67 0.66 0.66 0.66 0.67 0.69 0.70 0.71 0.72 0.72 0.73 0.74 0.77 0.80 0.78 0.79 0.80 0.80 0.79 0.78 0.79 0.79 0.79 0.80 0.83 0.84 0.84 0.84 0.82 0.80 0.78 0.76 0.75 0.74 0.72 0.75 0.76 0.75 0.72
0.48 0.47 0.46 0.39 0.41 0.50 0.52 0.52 0.53 0.53 0.53 0.54 0.57 0.58 0.55 0.56 0.58 0.58 0.55 0.53 0.54 0.55 0.55 0.53 0.54 0.55 0.56 0.57 0.55 0.55 0.55 0.56 0.57 0.58 0.60 0.62 0.62 0.64 0.65 0.65 0.65 0.67 0.68 0.69 0.69 0.69 0.68 0.66 0.66 0.66 0.65 0.66 0.67 0.68 0.70 0.70 0.70 0.69 0.73 0.77 0.78 0.79 0.79 0.78 0.78 0.78 0.79 0.78 0.78 0.79 0.78 0.77 0.77 0.77 0.76 0.77 0.77 0.76 0.76 0.75 0.75 0.73 0.73 0.72 0.71 0.69
0.50 0.52 0.43 0.37 0.44 0.39 0.33 0.48 0.46 0.46 0.49 0.50 0.50 0.53 0.53 0.53 0.50 0.51 0.50 0.50 0.49 0.50 0.50 0.51 0.51 0.52 0.53 0.54 0.54 0.54 0.56 0.58 0.58 0.60 0.62 0.62 0.62 0.63 0.63 0.63 0.63 0.64 0.66 0.66 0.67 0.69 0.68 0.67 0.66 0.65 0.64 0.63 0.65 0.67 0.69 0.69 0.69 0.69 0.71 0.71 0.72 0.73 0.76 0.76 0.76 0.76 0.77 0.76 0.77 0.76 0.77 0.77 0.75 0.73 0.72 0.72 0.71 0.71 0.71 0.72 0.70 0.69 0.68 0.69 0.68 0.68
0.39 0.50 0.39 0.40 0.39 0.35 0.35 0.40 0.41 0.42 0.41 0.42 0.41 0.39 0.38 0.40 0.42 0.43 0.43 0.44 0.44 0.44 0.44 0.44 0.46 0.46 0.48 0.47 0.49 0.50 0.51 0.55 0.55 0.56 0.58 0.59 0.61 0.62 0.62 0.62 0.62 0.63 0.65 0.67 0.67 0.67 0.66 0.66 0.65 0.64 0.64 0.64 0.66 0.66 0.67 0.68 0.68 0.68 0.68 0.69 0.70 0.70 0.70 0.70 0.71 0.72 0.73 0.74 0.74 0.74 0.74 0.74 0.75 0.73 0.72 0.71 0.69 0.67 0.69 0.71 0.70 0.65 0.63 0.65 0.67 0.68
0.37 0.40 0.28 0.34 0.30 0.32 0.35 0.34 0.33 0.33 0.33 0.33 0.34 0.37 0.38 0.37 0.37 0.38 0.39 0.40 0.40 0.40 0.41 0.42 0.43 0.43 0.44 0.45 0.46 0.47 0.47 0.50 0.53 0.54 0.55 0.56 0.58 0.59 0.60 0.62 0.63 0.63 0.64 0.63 0.64 0.65 0.62 0.63 0.62 0.63 0.64 0.64 0.65 0.66 0.67 0.66 0.66 0.67 0.66 0.67 0.69 0.70 0.68 0.67 0.67 0.66 0.67 0.69 0.71 0.71 0.72 0.72 0.71 0.72 0.71 0.69 0.68 0.67 0.65 0.64 0.65 0.64 0.62 0.63 0.63 0.64
0.28 0.23 0.28 0.27 0.22 0.23 0.24 0.27 0.32 0.24 0.22 0.29 0.32 0.32 0.32 0.34 0.36 0.36 0.36 0.36 0.37 0.37 0.38 0.38 0.39 0.42 0.43 0.44 0.43 0.44 0.43 0.44 0.47 0.49 0.50 0.53 0.55 0.58 0.61 0.62 0.63 0.64 0.64 0.65 0.66 0.66 0.64 0.64 0.62 0.61 0.61 0.63 0.64 0.63 0.62 0.63 0.64 0.64 0.64 0.64 0.65 0.65 0.64 0.65 0.65 0.62 0.60 0.60 0.62 0.64 0.65 0.65 0.66 0.66 0.67 0.66 0.64 0.62 0.62 0.64 0.62 0.60 0.57 0.56 0.58 0.57
0.30 0.30 0.29 0.22 0.22 0.22 0.29 0.31 0.32 0.28 0.28 0.29 0.31 0.33 0.35 0.35 0.34 0.31 0.32 0.34 0.35 0.36 0.37 0.36 0.35 0.37 0.38 0.38 0.39 0.38 0.37 0.37 0.36 0.37 0.37 0.39 0.43 0.49 0.53 0.58 0.59 0.61 0.62 0.63 0.63 0.63 0.63 0.63 0.63 0.63 0.62 0.61 0.62 0.62 0.60 0.59 0.59 0.61 0.62 0.63 0.62 0.61 0.60 0.61 0.59 0.58 0.55 0.55 0.56 0.57 0.59 0.59 0.59 0.60 0.61 0.62 0.60 0.59 0.59 0.59 0.60 0.61 0.58 0.57 0.56 0.55
Wind_Speed
17 16 17 18 18 18 19 20 20 20 20 18 16 15 15 13 14 15 13 13 14 15 14 13 15 17 17 18 18 18 18 18 18 17 18 17 17 19 19 18 18 18 17 17 18 19 19 19 19 19 18 18 18 18 17 16 16 16 15 15 16 15 16 17 16 16 18 19 18 18 17 16 15 14 13 14 14 14 13 13 14 15 14 13 13 13
17 17 18 18 18 19 19 19 20 21 21 20 17 16 16 14 13 14 12 11 11 13 14 15 17 18 19 19 19 20 20 19 19 18 19 19 19 19 20 19 19 19 18 18 18 18 19 20 20 20 19 19 19 18 17 16 16 15 14 14 15 14 15 17 16 16 18 19 18 18 17 16 15 14 14 14 14 14 14 14 14 14 13 13 13 12
17 18 19 19 18 18 19 19 19 20 21 20 17 17 17 15 13 14 14 13 12 13 15 16 18 19 19 20 20 20 20 20 20 20 20 20 20 20 20 20 20 19 20 20 19 19 20 21 21 21 20 19 19 18 17 16 15 15 14 14 14 13 14 15 14 15 17 18 18 18 17 16 15 14 14 14 14 14 14 14 14 14 13 13 13 13
16 17 18 19 18 18 19 18 17 16 18 18 16 17 18 17 16 15 15 15 15 14 15 17 18 19 19 19 18 18 19 20 22 23 22 21 21 21 21 21 20 20 19 20 20 20 21 21 21 21 21 20 19 17 16 16 15 14 13 13 13 13 14 14 14 15 17 17 18 17 17 16 15 14 14 14 14 14 14 14 14 14 14 13 13 13
17 16 16 17 18 19 18 16 16 16 16 17 18 18 18 18 19 17 15 15 16 16 15 16 17 17 18 19 20 19 20 21 22 23 23 23 22 21 21 21 22 21 20 20 19 19 20 21 21 21 20 20 19 18 16 15 14 13 13 13 12 13 15 15 14 15 17 18 18 17 17 16 15 15 14 14 14 15 15 15 15 14 14 13 13 12
18 16 13 14 16 17 17 15 17 17 16 17 18 19 20 20 20 19 18 16 17 18 16 15 16 16 18 20 21 20 20 22 22 22 22 22 22 21 20 20 21 22 21 20 20 20 20 20 20 20 19 18 18 18 16 15 15 13 13 13 12 13 14 15 15 15 17 18 18 17 17 16 16 15 15 15 15 15 15 15 15 14 13 13 12 12
18 18 15 14 14 13 15 16 17 17 16 16 16 17 19 21 21 21 20 18 17 16 15 16 17 16 16 17 17 17 18 20 20 20 20 20 20 21 20 19 20 21 23 22 21 21 21 19 19 19 19 18 18 18 16 15 15 14 13 13 13 13 14 14 14 15 16 17 17 17 17 17 17 16 16 15 15 15 15 15 14 13 13 13 12 12
17 19 18 17 17 15 15 16 16 17 16 15 15 15 17 19 21 21 20 19 19 18 18 19 19 19 19 18 17 17 17 18 17 16 16 17 17 18 16 15 16 17 20 22 21 21 21 19 18 19 19 18 18 19 17 15 15 15 14 14 14 13 13 14 14 15 16 17 17 17 16 16 16 16 16 16 16 16 15 15 14 13 12 12 12 11
16 18 17 16 16 16 16 16 16 17 17 15 16 16 16 16 17 17 17 19 20 19 20 20 19 19 19 18 17 17 17 16 15 13 12 11 11 12 12 12 13 12 13 17 19 20 20 20 20 20 20 20 19 20 19 17 17 16 16 15 14 14 14 14 15 16 16 16 17 16 15 16 16 16 16 16 16 16 15 14 14 13 12 12 11 11
14 17 18 16 16 15 15 16 17 17 16 16 17 17 15 13 14 15 16 17 17 19 20 20 18 17 18 17 15 15 14 13 12 12 13 12 11 11 11 11 13 13 12 14 15 16 18 18 19 20 21 20 20 20 20 19 18 17 17 16 16 15 14 14 14 15 15 16 17 17 16 16 16 16 16 16 16 15 15 14 14 13 12 12 11 11
15 14 17 17 16 16 16 16 16 17 16 15 16 16 15 14 14 15 16 16 16 18 20 20 19 18 17 16 14 12 11 10 11 12 13 13 13 14 14 13 14 15 15 15 15 16 16 17 18 20 20 20 21 21 20 20 19 18 18 17 17 16 15 15 15 14 13 14 16 18 17 17 17 17 17 17 16 16 15 15 14 13 12 12 11 11
19 16 16 15 14 14 16 17 16 16 15 15 14 13 13 13 14 15 15 15 16 17 18 18 19 19 17 15 12 10 9 9 11 12 12 13 13 14 15 15 15 16 16 16 16 17 17 17 18 19 20 20 22 22 21 20 20 19 19 18 17 17 17 16 16 14 13 13 16 18 18 17 18 18 18 18 17 16 16 15 14 13 13 12 12 11
19 19 18 16 16 16 16 16 16 16 16 15 15 14 14 13 13 14 13 13 15 15 16 17 17 16 14 11 9 9 8 9 10 12 12 13 14 14 14 15 15 16 16 16 16 16 17 18 18 19 21 22 22 23 22 21 20 19 18 18 17 17 17 16 16 15 13 13 16 18 18 18 18 18 18 18 17 17 16 15 15 14 13 12 12 12
17 19 19 17 15 17 18 16 15 15 15 15 15 14 14 13 12 13 12 12 14 14 14 15 15 15 12 8 7 7 8 9 10 11 12 13 14 14 15 16 16 17 16 16 17 17 18 18 18 19 21 22 23 24 23 22 21 19 19 19 18 17 17 15 15 15 15 13 14 17 18 18 19 19 18 18 18 17 17 16 15 15 13 13 12 12
16 16 18 17 15 15 18 18 16 14 14 15 16 15 15 14 13 12 11 11 12 12 13 12 12 13 12 11 10 9 8 9 10 11 12 13 14 14 14 15 15 16 15 15 16 17 18 18 17 17 19 21 22 24 23 22 21 21 20 19 18 18 17 15 15 15 15 14 13 14 16 18 19 19 19 19 19 18 17 17 16 15 14 13 12 12
17 16 16 17 16 15 16 17 18 16 14 14 15 16 16 15 14 13 12 12 11 11 12 12 11 9 9 10 10 9 9 9 10 11 11 12 12 13 13 13 13 13 13 13 13 14 16 16 15 15 16 19 21 23 23 22 21 20 20 19 18 18 18 17 17 16 15 14 13 13 15 17 18 19 19 19 19 19 18 17 15 14 14 13 12 12
16 15 15 17 17 16 16 15 17 17 14 12 13 15 16 15 15 13 13 14 13 12 12 12 12 10 9 10 9 9 9 8 9 10 10 11 11 11 12 12 12 12 12 11 11 12 13 13 13 13 14 16 19 20 20 19 19 19 19 19 18 19 19 18 18 17 15 14 13 12 14 16 17 18 19 19 20 20 17 16 15 14 14 13 12 12
15 14 15 17 16 17 17 15 16 17 15 12 12 13 13 14 15 13 13 13 13 14 12 13 13 9 9 10 10 9 8 8 9 9 9 10 9 9 11 11 10 10 10 10 10 11 11 12 13 13 13 15 17 18 18 16 15 15 17 19 19 19 19 19 18 17 16 16 15 12 13 16 18 18 19 20 21 19 17 16 15 14 13 13 12 12
14 14 15 17 16 15 16 16 15 17 17 16 14 12 11 12 13 13 13 12 13 13 11 13 13 8 7 10 9 9 9 9 10 10 9 9 8 9 9 9 8 8 8 8 8 9 9 10 12 12 13 14 14 15 16 16 14 14 16 18 19 19 19 19 18 17 17 17 16 13 12 15 18 19 20 21 22 20 18 16 15 14 13 13 12 12
13 13 14 15 15 14 14 15 15 15 16 17 16 14 13 12 12 12 13 13 13 12 11 12 12 8 7 9 9 9 9 9 10 9 8 8 8 7 7 6 7 6 5 6 7 8 8 9 10 11 11 12 13 13 14 15 16 17 17 18 19 20 20 19 18 18 18 17 17 15 13 13 17 20 20 21 22 21 19 17 16 15 14 14 13 12
15 14 14 13 14 15 15 15 15 14 14 15 16 16 15 14 13 13 13 13 13 12 11 11 11 9 8 8 8 9 8 7 7 7 7 7 6 5 5 5 6 6 6 6 7 7 8 9 10 10 11 11 12 12 12 14 16 17 18 19 19 19 19 19 18 18 18 19 19 18 15 14 16 18 20 22 22 21 19 18 17 16 15 14 14 13
14 14 14 14 14 15 14 14 15 14 13 14 15 15 16 15 14 14 14 14 14 13 12 12 10 9 9 8 8 8 8 7 6 4 5 4 3 3 4 5 6 7 7 7 7 7 8 8 9 10 10 11 12 12 12 13 14 16 17 18 18 19 19 19 18 19 19 20 20 20 17 15 16 17 20 22 22 21 19 19 18 17 16 15 14 13
12 13 14 14 14 15 13 12 13 13 13 14 15 14 15 16 16 16 15 14 14 13 12 11 10 10 10 9 7 7 7 5 4 3 3 3 3 4 4 5 7 7 7 7 7 7 7 8 9 9 10 10 11 12 12 13 13 13 15 15 16 17 17 18 18 18 19 20 21 21 20 18 17 18 20 22 22 21 20 19 19 17 16 14 14 13
12 14 14 14 14 15 14 13 13 13 12 13 13 12 12 13 15 16 14 13 13 12 11 10 9 9 9 8 7 7 7 5 3 3 3 4 5 5 5 6 7 7 7 7 8 8 8 8 9 10 11 11 11 11 13 13 13 13 13 13 14 15 16 18 18 19 20 21 22 22 22 20 18 18 20 22 22 21 20 20 19 18 16 15 14 13
12 13 15 14 13 13 14 14 14 14 13 11 10 10 10 9 11 12 12 12 13 13 12 11 10 9 9 9 8 7 6 5 5 4 4 5 5 5 5 6 7 7 7 8 8 8 9 9 10 10 11 12 12 12 13 14 14 14 14 14 14 15 16 18 19 20 21 22 23 23 23 21 19 19 20 21 21 21 21 21 20 18 16 15 14 13
12 12 13 14 13 12 12 12 12 13 14 12 11 10 9 8 9 11 12 11 11 13 13 12 11 10 9 8 7 5 5 4 4 5 5 5 5 5 5 6 7 7 7 8 8 9 9 10 11 12 12 13 13 14 14 14 15 15 16 16 17 17 18 19 21 22 22 23 24 24 23 22 20 20 20 20 21 21 21 21 21 19 17 16 15 14
13 12 12 13 13 12 11 11 12 13 13 12 11 10 9 9 9 10 11 10 11 12 11 10 11 10 9 8 7 6 5 5 4 5 6 6 6 6 6 6 7 7 8 8 9 9 10 11 11 12 13 14 14 15 15 15 16 17 17 18 19 19 20 21 22 22 23 24 25 24 23 21 20 20 21 21 21 21 21 21 21 21 19 17 15 15
13 12 12 12 12 12 13 13 12 13 13 12 11 11 9 9 9 9 10 11 12 12 10 8 9 9 8 7 7 7 7 6 5 6 6 6 7 7 6 6 7 7 8 9 9 10 11 11 12 13 14 15 15 16 16 16 16 17 17 18 19 20 20 21 23 23 23 25 25 24 23 22 21 21 21 21 20 20 21 22 22 22 20 18 16 16
13 13 12 11 12 12 13 13 12 13 14 12 11 11 9 8 8 8 10 12 13 13 10 9 9 8 7 7 7 7 7 7 6 6 6 6 7 7 6 6 7 7 8 9 9 10 11 12 12 13 14 14 15 16 16 16 16 16 16 17 18 19 19 20 22 22 23 24 24 23 23 22 21 21 21 21 20 20 21 21 22 22 21 19 17 16
13 13 12 12 13 12 12 12 12 12 13 12 9 8 8 7 8 8 8 9 9 10 10 10 9 8 8 8 7 7 6 6 6 6 6 7 7 7 7 6 7 7 8 8 9 10 10 11 12 12 13 13 14 14 15 15 15 15 15 15 16 17 17 18 19 20 23 24 23 22 23 22 22 21 21 21 21 20 21 21 21 21 20 19 18 17
12 12 12 12 13 12 11 11 10 9 10 9 7 7 7 7 8 8 8 8 8 8 11 11 10 9 10 9 7 7 7 7 6 6 7 7 7 7 7 7 7 7 7 8 9 10 10 11 11 12 12 12 12 12 12 13 13 13 13 13 14 14 15 16 16 18 21 22 21 21 22 22 21 21 21 20 21 21 21 21 21 20 20 18 17 16
12 13 12 12 13 12 11 11 10 9 8 6 4 6 8 8 8 9 9 9 9 10 11 11 10 10 11 10 8 7 7 7 6 6 7 7 7 7 7 7 7 7 8 8 9 9 10 10 10 11 11 11 11 10 11 11 11 11 11 11 11 12 12 13 14 16 18 18 19 20 20 20 20 20 20 20 20 21 21 21 20 20 19 17 16 16
12 13 13 13 13 12 11 11 11 11 11 9 6 7 8 9 9 9 9 9 9 10 10 9 9 10 10 9 7 7 7 7 7 7 8 8 7 7 7 6 6 7 8 9 9 9 9 9 9 10 10 9 9 9 9 10 9 9 9 9 9 10 11 11 13 15 16 16 17 18 18 19 19 19 19 20 20 21 21 21 20 19 17 16 16 15
12 13 13 13 13 12 11 11 12 13 13 12 9 8 8 8 9 8 8 8 9 10 10 10 9 9 9 8 8 7 7 7 7 7 7 7 8 7 7 7 7 7 7 8 8 8 8 9 9 9 9 8 8 8 8 8 8 8 7 7 7 7 9 10 12 13 14 15 16 16 17 18 18 18 18 19 20 20 21 21 20 18 17 16 16 16
13 13 13 13 13 12 11 12 13 13 13 13 10 9 9 8 8 8 7 7 8 10 11 11 10 10 9 10 9 8 7 6 6 7 7 7 7 7 7 7 7 7 7 8 8 8 8 8 8 8 7 7 7 7 6 6 6 6 6 5 4 4 5 7 10 12 13 14 15 15 15 16 17 17 17 18 20 21 21 21 19 18 17 17 16 16
14 14 14 14 14 13 13 12 12 12 12 12 11 10 9 10 10 9 8 7 8 10 11 12 12 12 11 11 11 10 9 7 6 7 8 8 8 8 8 8 8 8 8 8 9 8 8 7 7 6 6 6 6 5 5 5 5 5 4 3 3 3 4 5 7 11 12 12 14 14 14 15 16 16 16 17 19 20 20 19 18 18 17 17 17 16
14 14 14 14 14 13 11 10 10 11 11 11 11 11 10 9 10 10 9 7 7 9 10 11 12 12 12 12 12 13 13 10 8 8 9 8 8 8 8 8 8 8 8 8 8 8 8 7 6 6 6 6 5 5 5 5 5 4 3 2 2 3 4 4 5 8 11 11 12 13 14 14 15 15 16 17 18 19 19 18 18 17 18 18 17 16
13 13 14 13 13 14 12 10 11 12 11 9 10 10 10 9 9 10 10 8 7 8 8 10 11 11 12 12 13 15 16 13 11 10 10 9 9 8 8 7 7 7 7 8 8 8 8 8 7 6 6 6 6 6 5 5 4 4 2 2 2 1 3 4 5 7 10 10 11 12 13 13 14 15 16 17 18 18 19 18 18 17 17 18 18 17
14 14 14 13 13 13 13 12 11 10 10 9 9 9 9 8 8 9 9 8 7 7 7 8 9 10 11 12 12 14 15 14 12 12 11 10 9 8 8 7 7 7 7 7 8 8 7 7 7 7 7 6 6 7 6 5 5 4 3 2 2 1 1 3 4 6 8 9 11 12 12 13 14 15 16 16 18 18 18 18 19 18 18 18 18 17
13 14 14 15 14 13 12 11 10 9 9 8 8 8 7 7 8 9 9 7 7 6 7 7 7 8 9 10 11 12 13 13 13 12 11 10 9 9 9 9 9 8 8 8 8 8 8 7 7 7 7 7 8 8 7 7 5 4 4 3 2 2 1 1 2 4 5 7 9 10 11 12 13 14 15 16 16 17 17 17 17 17 17 17 16 16
10 11 13 14 13 12 12 12 10 9 8 8 9 8 7 7 8 8 7 7 6 5 5 5 5 5 6 7 8 10 11 11 12 12 11 10 9 9 10 10 10 9 9 9 9 9 9 8 8 8 8 8 8 9 9 8 7 5 5 4 3 2 2 2 2 3 3 5 6 7 8 10 11 12 13 14 14 14 15 15 15 15 15 15 15 15
8 9 10 11 11 12 12 11 10 9 7 8 9 8 6 8 8 7 6 6 5 4 4 4 4 4 4 4 5 6 8 9 10 10 10 10 10 10 10 10 9 10 10 10 10 10 10 9 9 9 9 9 9 9 9 8 8 7 6 4 3 3 4 3 3 3 4 4 5 5 6 8 9 10 11 12 12 12 13 13 14 14 14 14 13 14
7 8 8 8 9 11 12 10 9 8 6 7 8 7 6 6 7 7 6 5 4 4 4 4 4 4 4 4 4 4 5 6 7 8 9 9 9 10 10 9 9 10 10 10 10 10 10 10 10 9 9 10 10 9 9 8 7 7 6 5 5 6 5 5 4 4 5 5 5 5 6 7 7 8 10 11 11 11 12 12 13 13 13 13 13 13
5 7 8 8 8 10 10 9 8 7 4 3 4 5 4 4 6 6 5 4 4 4 4 4 4 5 4 4 4 4 4 4 5 6 7 8 8 9 9 9 9 10 10 10 10 10 10 10 10 10 9 10 10 9 9 9 8 7 7 6 7 7 6 6 5 5 5 5 6 6 7 7 7 8 9 10 10 11 11 12 12 13 13 13 13 13
2 4 7 8 8 8 9 9 7 6 5 3 4 4 4 3 3 3 3 3 3 3 3 3 4 4 4 4 4 4 4 4 5 6 7 8 8 9 9 9 9 9 10 10 11 11 11 10 10 10 10 10 10 9 9 9 9 8 7 8 8 7 7 7 7 7 7 7 7 7 7 7 8 9 10 11 11 11 12 12 12 12 13 13 13 13
5 6 8 10 11 10 9 9 7 6 6 5 5 5 4 3 3 2 2 2 2 2 3 3 3 4 4 4 4 4 5 6 6 7 8 9 9 9 9 10 10 10 10 11 11 11 11 11 11 11 10 10 10 10 10 9 9 8 8 8 8 8 8 7 7 7 8 8 7 7 7 8 9 9 10 11 12 12 12 12 12 12 12 13 13 13
7 8 9 10 11 10 8 8 8 7 7 6 6 5 5 4 3 2 1 1 1 2 2 3 3 3 4 4 5 5 6 7 7 8 9 10 10 10 10 11 11 11 11 11 11 11 11 11 11 10 10 10 10 10 10 9 9 9 9 10 9 9 9 9 8 8 8 8 9 9 9 9 9 9 10 10 11 12 12 12 13 13 13 14 14 14
9 10 10 11 11 10 9 9 8 8 7 6 5 5 4 4 3 2 1 1 1 1 2 3 3 4 4 4 5 6 6 7 8 8 9 9 10 10 10 10 11 11 11 11 11 11 11 10 10 10 11 11 11 10 10 10 10 11 11 11 11 10 10 9 9 9 9 9 10 10 11 10 10 11 11 11 11 12 12 13 13 14 15 15 16 16
10 11 11 12 12 10 10 9 8 8 7 6 6 5 4 4 3 2 1 0 1 2 3 3 4 5 6 6 6 7 7 7 8 9 9 9 10 10 11 11 12 12 12 12 12 12 11 11 11 11 11 12 12 11 11 11 11 11 12 12 12 11 11 10 10 10 10 10 11 12 12 12 12 12 12 12 12 11 12 12 13 14 14 15 16 16
10 10 11 11 10 8 8 7 6 6 5 5 5 4 4 3 2 1 1 1 2 3 4 5 6 7 7 8 8 9 9 9 10 10 10 11 11 11 12 12 13 13 13 13 13 13 13 13 13 13 13 13 13 13 12 12 12 12 12 11 11 12 12 12 12 11 11 12 12 13 13 13 13 13 13 14 13 13 12 12 12 12 13 14 15 15
8 9 9 8 8 7 7 6 5 4 4 4 4 3 3 3 3 3 3 4 5 5 6 7 8 9 9 10 11 11 12 12 12 12 12 13 13 13 13 13 13 14 14 14 14 15 15 15 15 14 14 14 14 14 14 13 13 13 12 11 12 12 12 13 13 13 13 12 13 13 14 14 14 14 14 14 14 14 14 13 13 12 13 13 14 15
Wind_Direction
225 229 231 231 233 233 233 235 239 242 244 252 263 262 258 254 246 242 237 235 245 253 255 261 264 261 260 260 260 261 260 257 253 250 254 252 243 244 247 244 245 245 245 245 247 248 248 249 247 246 247 246 249 254 254 254 255 255 253 248 244 241 233 227 225 221 214 212 212 210 211 213 214 217 217 216 216 216 216 213 211 212 210 211 214 216
226 231 234 233 235 237 237 238 240 244 247 256 262 258 254 253 248 246 241 237 244 252 258 264 267 265 263 262 261 262 263 261 258 254 253 252 249 247 246 245 246 247 247 245 246 248 247 247 246 245 245 246 249 252 251 252 253 252 250 246 242 237 229 223 220 217 212 210 210 210 212 214 215 218 219 218 218 217 216 213 212 211 209 211 214 215
229 235 237 236 236 238 239 240 240 242 247 254 257 250 249 251 250 252 247 242 250 261 265 267 269 267 263 261 260 260 260 259 258 258 254 252 253 250 247 249 248 247 247 245 246 248 247 246 244 244 244 245 248 248 247 250 251 248 247 244 238 233 225 220 217 213 208 208 211 212 213 216 218 220 220 219 219 216 215 213 211 212 210 210 213 216
230 234 236 235 235 237 238 240 241 244 246 249 249 244 246 250 252 255 251 247 254 265 270 273 275 270 266 266 264 262 262 260 258 258 256 252 253 254 249 248 248 246 245 245 246 248 247 245 244 244 243 242 243 245 246 246 246 244 243 239 233 226 220 218 216 210 206 207 210 213 215 217 219 220 219 220 219 216 213 211 211 213 212 213 216 219
230 235 234 229 231 234 236 237 238 243 245 245 245 245 246 249 251 254 254 255 259 261 265 272 275 269 265 264 264 264 262 260 258 257 257 253 252 255 251 246 246 245 244 243 243 245 245 244 245 245 244 244 242 241 241 240 241 240 236 233 228 223 219 218 215 210 207 208 211 215 217 217 218 218 218 220 218 214 212 211 212 213 214 217 218 219
231 237 234 227 231 231 231 237 237 239 246 247 246 245 247 251 254 254 257 264 264 259 259 265 270 269 264 261 262 263 259 258 255 253 256 256 251 251 252 248 244 243 245 243 240 243 244 243 244 245 245 248 248 243 240 239 239 237 232 229 225 221 219 217 214 211 209 209 212 216 217 217 217 216 218 218 215 212 211 211 212 213 214 215 215 215
230 236 234 230 235 231 231 239 238 238 244 248 248 245 245 248 253 256 259 264 263 261 265 267 271 276 271 266 267 267 264 260 253 248 251 254 252 249 250 251 244 241 245 245 243 242 243 242 242 245 245 246 247 243 241 240 236 233 230 225 222 221 221 219 215 211 209 210 213 217 216 216 216 215 216 216 214 211 210 209 210 211 212 212 211 211
227 234 233 231 236 237 238 241 239 237 241 247 248 247 247 246 248 253 254 257 259 265 269 267 269 273 272 272 272 271 272 266 252 247 253 253 250 248 248 252 251 247 244 243 244 241 239 239 239 241 243 245 242 236 235 237 234 232 230 224 221 221 221 220 214 213 215 215 215 216 216 216 216 216 214 214 213 209 208 208 208 210 210 209 209 209
226 231 229 226 234 240 241 242 240 236 240 246 245 250 258 254 253 258 256 254 256 261 266 264 263 267 269 269 269 264 267 267 253 246 253 253 250 248 249 252 256 263 254 241 242 240 235 237 239 239 241 242 238 231 231 236 236 232 228 224 221 220 220 219 216 218 220 220 218 216 215 215 215 215 212 210 208 206 206 206 206 207 208 207 209 209
227 230 232 232 237 242 242 241 240 237 240 245 247 255 262 257 256 263 263 259 258 258 262 262 259 264 269 268 267 262 259 264 256 242 243 248 252 253 256 257 255 265 263 246 244 243 237 237 238 238 240 239 234 231 231 234 234 229 226 225 222 219 220 221 221 223 225 224 221 218 216 215 214 213 209 206 205 205 205 204 204 206 205 206 208 210
231 230 234 238 240 242 242 241 241 240 242 244 248 255 258 255 256 260 262 262 261 261 262 262 259 260 265 267 267 263 254 251 250 246 245 248 253 256 259 262 261 264 260 250 248 248 243 242 241 240 241 238 234 232 231 230 229 226 224 224 222 219 220 222 224 228 231 229 223 220 219 218 216 213 208 206 206 206 204 203 204 204 203 205 208 211
235 234 234 239 242 242 243 242 240 239 241 243 246 251 254 255 254 254 256 254 255 262 263 261 258 255 259 265 261 253 252 251 248 251 253 252 255 258 260 261 262 263 256 250 252 251 248 249 248 245 243 240 234 232 230 227 225 225 225 223 221 219 221 222 224 228 233 233 226 222 222 220 217 213 209 207 207 205 204 203 204 203 203 206 210 213
234 237 235 236 241 241 241 241 239 237 236 239 242 243 248 252 250 250 251 250 254 260 260 260 259 255 256 264 255 242 251 256 253 258 261 259 259 262 264 262 261 261 255 250 252 252 251 251 250 247 244 240 234 229 227 225 222 223 223 221 219 219 220 224 226 228 233 237 231 224 221 220 217 212 209 209 208 206 205 204 203 203 204 207 212 215
231 235 233 232 236 236 236 237 237 235 231 234 238 238 241 246 247 249 250 253 257 260 264 264 259 253 249 253 254 249 255 259 257 261 264 265 264 264 264 263 262 262 257 249 247 249 251 251 252 249 244 240 234 228 225 223 222 221 219 218 219 218 220 223 226 227 229 235 234 223 218 218 214 211 210 211 209 207 205 204 203 204 207 212 216 218
230 234 232 234 234 229 232 235 236 237 233 235 240 240 241 242 246 252 251 253 257 261 268 267 259 255 247 243 251 256 260 265 265 264 263 265 266 264 264 264 264 262 256 249 248 249 249 249 251 249 245 242 236 228 225 224 222 219 217 217 218 217 220 224 226 227 227 231 232 223 218 215 212 210 210 211 210 206 204 203 204 207 212 216 219 220
232 237 233 235 234 227 229 233 235 239 239 237 237 238 241 241 245 252 253 255 262 264 262 257 260 262 246 241 254 261 263 268 270 268 266 265 266 265 265 264 262 261 255 248 247 248 247 247 248 244 241 237 231 228 229 228 222 217 216 217 218 219 222 226 227 227 227 228 226 225 222 216 213 211 209 210 207 203 202 204 206 209 212 216 219 222
232 238 234 233 234 231 229 229 231 236 239 238 235 236 239 240 244 249 250 253 256 258 257 252 253 250 241 247 260 263 266 271 269 268 267 267 266 264 261 257 254 255 253 249 249 252 250 249 247 238 233 230 227 229 230 227 221 218 217 217 219 222 224 227 229 228 226 222 221 227 225 217 214 211 209 207 202 199 202 206 207 210 212 215 217 222
232 237 235 231 232 231 229 228 230 232 236 240 239 239 238 238 242 245 247 247 246 251 253 248 245 241 241 253 263 264 265 270 271 270 267 266 264 254 245 242 243 245 247 246 251 256 254 254 254 246 238 233 229 229 227 224 220 215 215 217 220 222 224 226 230 229 224 218 219 226 224 218 215 212 209 205 199 200 206 207 207 210 212 213 216 221
231 238 236 231 229 227 227 231 233 231 233 237 240 242 237 235 238 239 241 244 245 249 251 246 243 242 245 252 260 266 268 273 277 275 270 268 262 244 231 231 239 244 247 248 254 258 255 253 253 248 244 235 226 225 223 223 222 217 217 220 222 224 225 226 228 228 223 219 221 225 225 218 214 211 209 205 202 206 209 207 207 210 211 213 216 220
227 235 235 230 227 224 225 231 236 234 231 233 238 242 240 240 242 240 239 241 244 247 250 248 244 244 255 260 260 262 266 272 275 275 276 271 260 249 243 246 255 262 269 270 272 272 266 260 253 248 247 235 223 223 223 223 224 223 223 224 224 225 226 226 226 226 223 221 221 222 223 218 212 210 209 205 205 208 209 207 208 211 212 213 217 220
226 228 231 229 225 225 227 227 232 236 231 228 233 238 239 240 241 241 239 239 243 248 249 249 246 243 255 268 267 262 261 266 274 280 276 263 256 263 273 277 280 289 295 287 282 280 276 276 272 266 263 252 240 238 237 234 229 226 227 227 226 226 225 225 226 226 225 222 219 219 219 214 209 209 207 204 205 207 207 208 210 212 214 215 218 222
226 223 227 229 226 228 228 224 229 238 238 230 229 236 239 239 239 240 241 238 238 243 247 248 245 240 248 265 274 271 266 263 266 267 263 262 276 287 284 290 293 293 295 291 285 283 282 281 280 276 272 264 256 254 251 247 239 233 231 230 228 227 226 227 228 227 226 221 218 217 215 212 209 208 206 203 204 206 207 209 210 212 213 214 218 221
227 223 226 230 229 229 230 230 234 243 248 239 234 239 243 242 241 243 246 243 237 241 248 249 243 239 246 257 268 272 270 265 254 241 251 274 298 300 293 297 297 294 296 293 286 286 287 286 282 279 277 272 265 261 257 254 251 245 238 233 231 230 228 229 229 228 225 222 220 217 214 212 210 207 206 205 206 207 208 209 209 210 211 211 214 218
228 224 226 229 231 232 235 240 238 239 247 243 236 243 250 250 247 246 247 244 238 239 242 246 247 244 244 248 255 261 260 259 258 253 268 279 285 293 296 295 295 298 299 294 287 285 286 289 287 281 281 280 274 267 261 258 258 256 250 244 240 237 234 233 231 229 227 225 222 217 213 212 210 208 207 208 208 208 209 210 209 209 210 210 212 216
226 225 225 227 229 231 234 239 235 232 237 239 239 247 256 265 263 254 246 241 241 241 235 237 247 248 246 247 253 262 259 262 274 277 284 289 285 285 287 288 291 292 292 290 287 285 286 288 288 284 283 281 277 273 269 262 260 260 259 256 251 247 244 239 234 232 229 226 223 217 212 211 210 208 207 206 206 209 211 211 210 211 212 211 212 216
225 225 225 226 230 229 229 235 238 235 236 241 249 255 260 268 265 253 244 241 248 250 241 236 238 239 243 244 245 258 265 271 289 293 292 294 291 283 282 286 288 287 286 285 283 284 286 287 286 286 286 284 281 277 273 269 266 265 263 260 256 252 249 244 237 232 229 227 224 217 210 209 209 209 207 204 206 209 211 211 210 212 213 213 214 217
224 227 230 232 236 236 232 236 242 244 242 244 254 260 260 262 259 249 243 241 247 252 245 235 229 227 233 239 241 256 266 273 292 301 296 293 293 289 285 287 291 289 285 282 281 284 287 288 288 287 286 285 284 281 278 275 274 272 269 263 257 254 251 245 238 234 232 229 222 215 210 210 210 209 207 205 207 210 212 212 212 212 214 215 216 219
223 229 235 238 241 240 237 238 245 250 249 247 254 258 254 256 255 246 245 246 242 243 242 232 226 222 225 238 248 257 263 269 285 300 299 294 294 293 292 296 300 298 292 287 287 289 291 291 290 289 288 286 284 283 281 278 277 277 274 267 260 256 252 245 239 238 234 225 217 212 212 212 211 210 209 209 210 211 214 214 213 213 215 216 218 221
227 230 232 236 243 243 241 243 246 252 253 248 251 254 248 249 251 242 249 255 247 242 242 233 224 223 228 241 254 259 263 268 278 293 300 298 299 298 298 302 305 305 302 298 295 294 294 293 292 292 291 289 286 284 283 281 279 278 275 271 265 259 253 245 241 238 228 217 213 213 213 213 212 211 210 210 212 213 215 215 214 214 216 217 219 222
233 232 230 236 245 243 243 247 243 246 253 247 240 246 243 240 241 237 248 260 248 235 233 226 220 228 238 246 255 260 264 270 280 291 299 301 302 299 297 300 304 307 306 302 300 297 295 296 296 296 294 292 290 287 285 283 281 279 277 274 270 262 252 243 239 232 220 213 213 213 211 211 211 210 212 212 212 214 214 213 214 214 213 215 218 221
234 235 235 241 248 241 237 244 240 237 243 239 232 245 247 241 241 243 251 257 249 236 230 225 225 234 240 245 255 265 270 274 284 294 297 298 296 294 294 297 302 307 307 303 300 298 298 299 299 300 298 296 294 292 289 286 282 280 279 276 273 264 249 240 234 224 213 209 210 210 208 209 209 209 212 213 212 214 213 211 212 212 209 211 217 220
237 239 237 241 246 241 236 240 239 229 227 232 257 267 260 254 249 246 249 252 253 252 244 235 236 243 244 242 249 266 274 276 282 287 286 288 291 292 293 295 300 306 307 305 303 301 300 300 300 302 300 296 295 295 294 290 285 284 283 277 272 262 246 233 223 215 209 207 207 207 208 210 210 210 212 212 211 213 212 209 208 207 206 211 216 217
240 240 240 241 243 240 238 239 236 229 228 240 269 276 264 259 252 246 251 256 255 254 245 235 238 247 246 241 244 260 271 274 276 275 275 278 281 284 286 287 292 299 301 303 304 303 300 298 298 300 299 297 298 300 300 296 291 290 286 276 266 256 242 229 216 210 209 207 206 206 207 208 209 211 212 211 210 211 209 205 204 205 207 212 215 215
241 242 241 241 240 237 235 235 234 234 234 238 253 265 261 256 250 247 255 259 255 249 240 234 240 248 247 246 249 254 262 267 268 268 271 273 271 273 279 281 284 288 293 298 302 302 300 297 296 298 299 299 302 304 306 305 299 293 287 276 264 251 238 229 218 210 206 205 203 203 205 206 209 211 210 209 207 206 203 201 202 206 210 214 216 218
241 242 240 239 240 238 233 233 236 239 236 233 242 260 261 251 244 242 251 261 259 252 245 240 244 249 248 248 249 246 245 253 261 266 269 269 267 270 274 278 281 283 288 293 297 301 302 300 300 301 302 303 304 303 308 314 310 303 295 284 275 260 241 229 219 209 203 202 202 202 204 206 208 208 206 205 203 201 200 201 205 210 213 216 219 221
241 241 241 239 239 239 239 240 238 234 231 233 242 257 262 255 248 244 250 266 267 258 252 246 245 249 248 244 243 237 230 234 251 266 272 271 269 270 270 272 278 282 285 288 291 295 299 301 304 304 303 308 310 308 311 315 315 313 305 288 271 246 224 216 215 210 204 201 201 203 206 207 206 205 203 201 200 199 201 205 209 212 215 218 220 223
243 242 242 241 239 238 237 235 229 226 231 239 244 250 254 254 253 246 243 256 271 265 258 252 250 251 250 244 240 235 231 236 248 262 273 273 267 266 268 270 274 278 280 283 285 287 290 294 299 303 306 313 317 315 313 312 312 316 313 308 292 238 212 199 196 200 200 200 199 201 204 204 203 203 202 201 200 200 203 207 212 216 219 221 222 226
242 239 240 240 238 236 232 225 226 230 236 243 246 249 250 249 251 245 236 246 273 274 263 257 253 250 249 247 247 243 240 243 248 256 269 272 265 262 264 267 272 275 278 282 284 285 287 288 291 297 302 310 317 313 308 306 308 314 317 325 335 286 213 201 190 187 189 192 195 198 202 202 201 201 201 202 204 205 208 212 217 221 225 225 226 229
239 234 235 238 237 237 235 232 234 235 236 240 247 251 250 243 241 239 233 245 272 278 270 263 255 250 251 252 254 252 247 244 244 251 261 264 260 260 261 264 272 277 280 285 287 286 287 287 289 291 294 300 306 305 301 301 305 315 322 316 325 354 171 200 202 197 192 192 195 199 201 202 202 202 204 206 208 211 215 219 222 226 228 228 228 229
239 232 233 237 236 234 231 229 231 229 228 238 247 249 246 234 231 234 236 247 266 273 272 268 259 258 260 256 253 254 250 245 243 247 252 253 254 260 262 265 270 275 279 284 283 281 283 288 293 295 294 294 293 293 293 293 296 308 315 308 313 359 19 260 223 219 212 204 202 203 204 206 206 206 208 210 212 215 219 221 223 223 222 221 222 223
238 234 232 232 231 228 221 217 220 221 227 246 251 245 240 234 231 236 242 249 258 261 263 265 259 257 261 257 249 247 245 242 240 240 243 247 253 259 263 265 267 269 274 278 276 273 275 282 290 292 292 290 288 287 287 284 284 292 295 298 310 322 302 279 257 242 228 213 208 207 206 206 206 205 206 207 209 210 212 214 215 214 214 217 220 221
240 238 231 227 227 223 213 208 210 214 232 256 252 241 241 239 233 233 239 245 252 254 254 259 255 247 250 253 247 239 236 237 236 236 240 246 251 256 260 263 266 268 271 273 273 272 272 276 281 282 282 284 285 285 283 280 280 283 283 282 280 270 265 264 256 241 225 209 202 198 197 198 199 200 201 202 202 203 205 208 210 212 215 218 218 218
240 238 226 218 219 214 205 203 208 211 232 258 246 233 239 236 223 222 231 237 244 250 252 253 249 243 240 241 243 240 235 234 233 234 238 243 248 254 258 262 266 269 270 272 274 274 273 275 279 280 279 280 281 280 279 278 278 277 275 272 266 261 262 265 257 240 225 214 206 200 199 200 201 200 201 203 204 205 206 208 211 214 218 220 220 220
247 240 218 208 211 206 195 193 200 203 212 233 216 205 208 212 210 216 223 229 240 250 253 250 245 241 238 235 239 243 240 238 239 239 242 247 251 255 258 261 265 267 267 269 271 272 272 273 275 276 277 277 278 277 275 275 275 274 270 267 264 261 261 260 253 241 231 226 222 218 215 213 209 205 205 208 210 211 213 214 217 220 222 223 225 227
218 203 188 181 179 176 173 174 177 177 170 151 147 156 161 166 181 194 201 214 232 242 244 244 241 241 243 243 248 256 256 253 251 249 251 255 257 259 260 262 264 266 265 267 268 269 270 270 270 271 272 272 274 275 273 269 267 268 267 264 263 261 259 254 247 239 233 229 227 226 224 220 217 215 215 219 220 221 223 224 225 227 228 229 232 235
146 150 154 155 152 146 147 154 155 146 137 130 126 128 132 134 143 155 171 198 223 231 238 244 244 247 252 252 254 262 266 265 262 260 261 261 261 262 263 263 265 268 269 269 270 270 269 267 266 267 268 267 269 271 268 263 258 257 258 259 261 262 262 259 252 245 239 235 232 234 234 230 226 224 224 226 227 227 228 229 231 233 235 237 239 242
142 142 139 144 153 150 140 139 136 125 120 121 118 114 110 109 114 124 151 189 216 231 242 251 254 256 258 256 255 259 263 266 267 269 268 266 264 264 264 263 264 266 267 267 266 265 264 263 263 264 264 264 266 267 263 257 254 253 254 255 257 259 259 258 255 251 247 245 244 244 245 243 238 234 233 235 237 236 236 238 240 241 243 244 246 247
135 136 128 129 137 138 132 130 126 118 115 115 113 113 111 108 107 107 114 160 224 254 259 265 269 270 270 268 265 264 265 267 268 268 268 266 264 263 262 261 261 262 263 264 263 262 262 262 263 264 264 263 263 263 260 256 253 253 254 254 255 257 258 258 257 254 251 250 250 250 249 248 245 241 239 240 243 243 243 246 249 249 249 250 250 250
120 126 125 126 128 128 128 128 123 115 109 101 97 101 104 106 110 112 116 169 252 276 277 276 276 275 275 273 271 270 270 271 271 270 267 265 263 262 260 258 259 261 262 263 264 264 264 265 265 266 266 265 263 261 260 259 257 257 257 257 258 259 259 258 258 258 255 253 252 250 249 249 248 245 244 244 245 245 246 250 254 255 255 255 255 255
109 119 123 124 124 124 125 126 122 113 104 95 89 86 81 75 75 61 21 330 307 296 287 281 276 272 272 272 273 273 272 271 271 271 270 269 267 264 261 259 258 259 259 260 261 260 261 262 261 261 261 261 261 260 259 259 259 258 257 258 260 261 260 257 257 259 259 255 251 250 249 250 250 249 249 249 250 251 253 256 261 263 261 259 259 259
97 112 116 113 111 111 111 113 111 103 97 93 86 75 56 34 19 7 349 333 323 313 303 293 283 276 274 273 272 272 271 270 269 269 269 269 268 266 263 260 258 257 257 258 259 258 257 257 257 258 258 258 259 259 259 259 259 258 256 256 259 262 262 260 259 260 260 258 256 254 252 252 253 253 252 252 252 254 256 258 262 265 264 263 263 263